Tracking 23752 objects as of 23-Oct-2021
HD Live streaming from Space Station
objects crossing your sky now

COSMOS 1375 DEB

Track COSMOS 1375 DEB now!
10-day predictions


NORAD ID: 16206
Int'l Code: 1982-055H
Perigee: 981.7 km
Apogee: 1,007.8 km
Inclination: 65.8 °
Period: 104.9 minutes
Semi major axis: 7365 km
RCS: 0.4888 m2 (medium)
Launch date: June 6, 1982
Source: Commonwealth of Independent States (former USSR) (CIS)
Launch site: PLESETSK MISSILE AND SPACE COMPLEX (PKMTR)

Note: This is SATELLITE DEBRIS
aabbcc
Your satellite tracking list
Your tracking list is empty




NASA's NSSDC Master Catalog

Two Line Element Set (TLE):
1 16206U 82055H   21296.79846553 -.00000021  00000-0  64189-4 0  9998
2 16206  65.8352  66.1428 0017710 183.6324 339.3307 13.73347768973530
Source of the keplerian elements: AFSPC